Time,TemperatureF,DewpointF,PressureIn,WindDirection,WindDirectionDegrees,WindSpeedMPH,WindSpeedGustMPH,Humidity,HourlyPrecipIn,Conditions,Clouds,dailyrainin,SolarRadiationWatts/m^2,SoftwareType,DateUTC
2013-05-15 00:22:00,59.0,59.0,-100.00,SSE,165,1.0,2.0,100,0.00,,,0.00,0.000000,,2013-05-15 05:22:00,
2013-05-15 00:32:00,59.0,59.0,-100.00,SSE,165,1.0,2.0,100,0.00,,,0.00,0.000000,,2013-05-15 05:32:00,
2013-05-15 00:42:00,59.0,59.0,-100.00,SSE,165,1.0,2.0,100,0.00,,,0.00,0.000000,,2013-05-15 05:42:00,
2013-05-15 00:51:00,58.0,58.0,-100.00,West,276,0.0,2.0,100,0.00,,,0.00,0.000000,,2013-05-15 05:51:00,
2013-05-15 01:11:00,58.0,58.0,-100.00,West,276,0.0,2.0,100,0.00,,,0.00,0.000000,,2013-05-15 06:11:00,
2013-05-15 01:21:00,58.0,58.0,-100.00,West,276,0.0,2.0,100,0.00,,,0.00,0.000000,,2013-05-15 06:21:00,
2013-05-15 01:32:00,58.0,58.0,-100.00,West,276,0.0,2.0,100,0.00,,,0.00,0.000000,,2013-05-15 06:32:00,
2013-05-15 01:42:00,58.0,58.0,-100.00,West,276,0.0,2.0,100,0.00,,,0.00,0.000000,,2013-05-15 06:42:00,
2013-05-15 02:11:00,57.0,57.0,-100.00,NNW,339,0.0,0.0,100,0.00,,,0.00,0.000000,,2013-05-15 07:11:00,
2013-05-15 02:22:00,57.0,57.0,-100.00,NNW,339,0.0,0.0,100,0.00,,,0.00,0.000000,,2013-05-15 07:22:00,
2013-05-15 03:12:00,56.0,56.0,-100.00,WNW,288,0.0,0.0,100,0.00,,,0.00,0.000000,,2013-05-15 08:12:00,
2013-05-15 03:21:00,56.0,56.0,-100.00,WNW,288,0.0,0.0,100,0.00,,,0.00,0.000000,,2013-05-15 08:21:00,
2013-05-15 03:32:00,56.0,56.0,-100.00,WNW,288,0.0,0.0,100,0.00,,,0.00,0.000000,,2013-05-15 08:32:00,
2013-05-15 03:51:00,55.0,55.0,-100.00,NW,321,0.0,2.0,100,0.00,,,0.00,0.000000,,2013-05-15 08:51:00,
2013-05-15 04:21:00,55.0,55.0,-100.00,NW,321,0.0,2.0,100,0.00,,,0.00,0.000000,,2013-05-15 09:21:00,
2013-05-15 04:33:00,55.0,55.0,-100.00,NW,321,0.0,2.0,100,0.00,,,0.00,0.000000,,2013-05-15 09:33:00,
2013-05-15 04:42:00,55.0,55.0,-100.00,NW,321,0.0,2.0,100,0.00,,,0.00,0.000000,,2013-05-15 09:42:00,
2013-05-15 04:51:00,55.0,55.0,-100.00,WSW,238,0.0,2.0,100,0.00,,,0.00,0.000000,,2013-05-15 09:51:00,
2013-05-15 05:12:00,55.0,55.0,-100.00,WSW,238,0.0,2.0,100,0.00,,,0.00,0.000000,,2013-05-15 10:12:00,
2013-05-15 05:22:00,55.0,55.0,-100.00,WSW,238,0.0,2.0,100,0.00,,,0.00,0.000000,,2013-05-15 10:22:00,
2013-05-15 05:32:00,55.0,55.0,-100.00,WSW,238,0.0,2.0,100,0.00,,,0.00,0.000000,,2013-05-15 10:32:00,
2013-05-15 05:42:00,55.0,55.0,-100.00,WSW,238,0.0,2.0,100,0.00,,,0.00,0.000000,,2013-05-15 10:42:00,
2013-05-15 05:51:00,54.0,54.0,-100.00,ESE,102,0.0,2.0,100,0.00,,,0.00,0.000000,,2013-05-15 10:51:00,
2013-05-15 06:18:00,54.0,54.0,-100.00,ESE,102,0.0,2.0,100,0.00,,,0.00,0.000000,,2013-05-15 11:18:00,
2013-05-15 06:27:00,54.0,54.0,-100.00,ESE,102,0.0,2.0,100,0.00,,,0.00,0.000000,,2013-05-15 11:27:00,
2013-05-15 06:47:00,54.0,54.0,-100.00,ESE,102,0.0,2.0,100,0.00,,,0.00,0.000000,,2013-05-15 11:47:00,
2013-05-15 06:51:00,56.0,56.0,-100.00,NNE,33,0.0,0.0,100,0.00,,,0.00,24.000000,,2013-05-15 11:51:00,
2013-05-15 07:15:00,56.0,56.0,-100.00,NNE,33,0.0,0.0,100,0.00,,,0.00,24.000000,,2013-05-15 12:15:00,
2013-05-15 07:28:00,56.0,56.0,-100.00,NNE,33,0.0,0.0,100,0.00,,,0.00,24.000000,,2013-05-15 12:28:00,
2013-05-15 07:36:00,56.0,56.0,-100.00,NNE,33,0.0,0.0,100,0.00,,,0.00,24.000000,,2013-05-15 12:36:00,
2013-05-15 07:47:00,56.0,56.0,-100.00,NNE,33,0.0,0.0,100,0.00,,,0.00,24.000000,,2013-05-15 12:47:00,
2013-05-15 07:51:00,67.0,66.0,-100.00,NNE,20,1.0,2.0,96,0.00,,,0.00,182.000000,,2013-05-15 12:51:00,
2013-05-15 08:18:00,67.0,66.0,-100.00,NNE,20,1.0,2.0,96,0.00,,,0.00,182.000000,,2013-05-15 13:18:00,
2013-05-15 08:26:00,67.0,66.0,-100.00,NNE,20,1.0,2.0,96,0.00,,,0.00,182.000000,,2013-05-15 13:26:00,
2013-05-15 08:36:00,67.0,66.0,-100.00,NNE,20,1.0,2.0,96,0.00,,,0.00,182.000000,,2013-05-15 13:36:00,
2013-05-15 08:46:00,67.0,66.0,-100.00,NNE,20,1.0,2.0,96,0.00,,,0.00,182.000000,,2013-05-15 13:46:00,
2013-05-15 08:51:00,74.0,64.0,-100.00,WNW,282,3.0,6.0,71,0.00,,,0.00,386.000000,,2013-05-15 13:51:00,
2013-05-15 09:14:00,74.0,64.0,-100.00,WNW,282,3.0,6.0,71,0.00,,,0.00,386.000000,,2013-05-15 14:14:00,
2013-05-15 09:26:00,74.0,64.0,-100.00,WNW,282,3.0,6.0,71,0.00,,,0.00,386.000000,,2013-05-15 14:26:00,
2013-05-15 09:51:00,79.0,58.0,-100.00,NE,35,2.0,7.0,48,0.00,,,0.00,583.000000,,2013-05-15 14:51:00,
2013-05-15 10:16:00,79.0,58.0,-100.00,NE,35,2.0,7.0,48,0.00,,,0.00,583.000000,,2013-05-15 15:16:00,
2013-05-15 10:27:00,79.0,58.0,-100.00,NE,35,2.0,7.0,48,0.00,,,0.00,583.000000,,2013-05-15 15:27:00,
2013-05-15 10:36:00,79.0,58.0,-100.00,NE,35,2.0,7.0,48,0.00,,,0.00,583.000000,,2013-05-15 15:36:00,
2013-05-15 10:47:00,79.0,58.0,-100.00,NE,35,2.0,7.0,48,0.00,,,0.00,583.000000,,2013-05-15 15:47:00,
2013-05-15 10:51:00,80.0,57.0,-100.00,SE,142,5.0,9.0,45,0.00,,,0.00,741.000000,,2013-05-15 15:51:00,
2013-05-15 11:22:00,80.0,57.0,-100.00,SE,142,5.0,9.0,45,0.00,,,0.00,741.000000,,2013-05-15 16:22:00,
2013-05-15 11:28:00,80.0,57.0,-100.00,SE,142,5.0,9.0,45,0.00,,,0.00,741.000000,,2013-05-15 16:28:00,
2013-05-15 11:47:00,80.0,57.0,-100.00,SE,142,5.0,9.0,45,0.00,,,0.00,741.000000,,2013-05-15 16:47:00,
2013-05-15 11:51:00,81.0,53.0,-100.00,SSE,152,6.0,12.0,38,0.00,,,0.00,870.000000,,2013-05-15 16:51:00,
2013-05-15 12:27:00,81.0,53.0,-100.00,SSE,152,6.0,12.0,38,0.00,,,0.00,870.000000,,2013-05-15 17:27:00,
2013-05-15 12:36:00,81.0,53.0,-100.00,SSE,152,6.0,12.0,38,0.00,,,0.00,870.000000,,2013-05-15 17:36:00,
2013-05-15 12:45:00,81.0,53.0,-100.00,SSE,152,6.0,12.0,38,0.00,,,0.00,870.000000,,2013-05-15 17:45:00,
2013-05-15 12:51:00,81.0,51.0,-100.00,South,173,5.0,11.0,35,0.00,,,0.00,942.000000,,2013-05-15 17:51:00,
2013-05-15 13:15:00,81.0,51.0,-100.00,South,173,5.0,11.0,35,0.00,,,0.00,942.000000,,2013-05-15 18:15:00,
2013-05-15 13:26:00,81.0,51.0,-100.00,South,173,5.0,11.0,35,0.00,,,0.00,942.000000,,2013-05-15 18:26:00,
2013-05-15 13:46:00,81.0,51.0,-100.00,South,173,5.0,11.0,35,0.00,,,0.00,942.000000,,2013-05-15 18:46:00,
2013-05-15 13:51:00,81.0,47.0,-100.00,SSE,161,6.0,14.0,31,0.00,,,0.00,838.000000,,2013-05-15 18:51:00,
2013-05-15 14:15:00,81.0,47.0,-100.00,SSE,161,6.0,14.0,31,0.00,,,0.00,838.000000,,2013-05-15 19:15:00,
2013-05-15 14:30:00,81.0,47.0,-100.00,SSE,161,6.0,14.0,31,0.00,,,0.00,838.000000,,2013-05-15 19:30:00,
2013-05-15 14:37:00,81.0,47.0,-100.00,SSE,161,6.0,14.0,31,0.00,,,0.00,838.000000,,2013-05-15 19:37:00,
2013-05-15 14:45:00,81.0,47.0,-100.00,SSE,161,6.0,14.0,31,0.00,,,0.00,838.000000,,2013-05-15 19:45:00,
2013-05-15 14:51:00,81.0,52.0,-100.00,SSE,158,7.0,14.0,36,0.00,,,0.00,898.000000,,2013-05-15 19:51:00,
2013-05-15 15:18:00,81.0,52.0,-100.00,SSE,158,7.0,14.0,36,0.00,,,0.00,898.000000,,2013-05-15 20:18:00,
2013-05-15 15:28:00,81.0,52.0,-100.00,SSE,158,7.0,14.0,36,0.00,,,0.00,898.000000,,2013-05-15 20:28:00,
2013-05-15 15:46:00,81.0,52.0,-100.00,SSE,158,7.0,14.0,36,0.00,,,0.00,898.000000,,2013-05-15 20:46:00,
2013-05-15 15:51:00,80.0,51.0,-100.00,SSE,161,7.0,13.0,37,0.00,,,0.00,756.000000,,2013-05-15 20:51:00,
2013-05-15 16:28:00,80.0,51.0,-100.00,SSE,161,7.0,13.0,37,0.00,,,0.00,756.000000,,2013-05-15 21:28:00,
2013-05-15 16:49:00,80.0,51.0,-100.00,SSE,161,7.0,13.0,37,0.00,,,0.00,756.000000,,2013-05-15 21:49:00,
2013-05-15 16:51:00,79.0,50.0,-100.00,SSE,161,6.0,12.0,37,0.00,,,0.00,553.000000,,2013-05-15 21:51:00,
2013-05-15 17:18:00,79.0,50.0,-100.00,SSE,161,6.0,12.0,37,0.00,,,0.00,553.000000,,2013-05-15 22:18:00,
2013-05-15 17:29:00,79.0,50.0,-100.00,SSE,161,6.0,12.0,37,0.00,,,0.00,553.000000,,2013-05-15 22:29:00,
2013-05-15 17:39:00,79.0,50.0,-100.00,SSE,161,6.0,12.0,37,0.00,,,0.00,553.000000,,2013-05-15 22:39:00,
2013-05-15 17:47:00,79.0,50.0,-100.00,SSE,161,6.0,12.0,37,0.00,,,0.00,553.000000,,2013-05-15 22:47:00,
2013-05-15 17:51:00,77.0,50.0,-100.00,SSW,197,6.0,14.0,39,0.00,,,0.00,392.000000,,2013-05-15 22:51:00,
2013-05-15 18:27:00,77.0,50.0,-100.00,SSW,197,6.0,14.0,39,0.00,,,0.00,392.000000,,2013-05-15 23:27:00,
2013-05-15 18:38:00,77.0,50.0,-100.00,SSW,197,6.0,14.0,39,0.00,,,0.00,392.000000,,2013-05-15 23:38:00,
2013-05-15 18:48:00,77.0,50.0,-100.00,SSW,197,6.0,14.0,39,0.00,,,0.00,392.000000,,2013-05-15 23:48:00,
2013-05-15 18:51:00,75.0,53.0,-100.00,South,187,4.0,11.0,47,0.00,,,0.00,143.000000,,2013-05-15 23:51:00,
2013-05-15 19:26:00,75.0,53.0,-100.00,South,187,4.0,11.0,47,0.00,,,0.00,143.000000,,2013-05-16 00:26:00,
2013-05-15 19:35:00,75.0,53.0,-100.00,South,187,4.0,11.0,47,0.00,,,0.00,143.000000,,2013-05-16 00:35:00,
2013-05-15 19:49:00,75.0,53.0,-100.00,South,187,4.0,11.0,47,0.00,,,0.00,143.000000,,2013-05-16 00:49:00,
2013-05-15 19:51:00,70.0,57.0,-100.00,South,181,2.0,7.0,63,0.00,,,0.00,32.000000,,2013-05-16 00:51:00,
2013-05-15 20:16:00,70.0,57.0,-100.00,South,181,2.0,7.0,63,0.00,,,0.00,32.000000,,2013-05-16 01:16:00,
2013-05-15 20:29:00,70.0,57.0,-100.00,South,181,2.0,7.0,63,0.00,,,0.00,32.000000,,2013-05-16 01:29:00,
2013-05-15 20:48:00,70.0,57.0,-100.00,South,181,2.0,7.0,63,0.00,,,0.00,32.000000,,2013-05-16 01:48:00,
2013-05-15 20:51:00,68.0,59.0,-100.00,SSW,197,2.0,4.0,74,0.00,,,0.00,0.000000,,2013-05-16 01:51:00,
2013-05-15 21:16:00,68.0,59.0,-100.00,SSW,197,2.0,4.0,74,0.00,,,0.00,0.000000,,2013-05-16 02:16:00,
2013-05-15 21:27:00,68.0,59.0,-100.00,SSW,197,2.0,4.0,74,0.00,,,0.00,0.000000,,2013-05-16 02:27:00,
2013-05-15 21:37:00,68.0,59.0,-100.00,SSW,197,2.0,4.0,74,0.00,,,0.00,0.000000,,2013-05-16 02:37:00,
2013-05-15 21:46:00,68.0,59.0,-100.00,SSW,197,2.0,4.0,74,0.00,,,0.00,0.000000,,2013-05-16 02:46:00,
2013-05-15 21:51:00,68.0,61.0,-100.00,South,185,1.0,5.0,78,0.00,,,0.00,0.000000,,2013-05-16 02:51:00,
2013-05-15 22:25:00,68.0,61.0,-100.00,South,185,1.0,5.0,78,0.00,,,0.00,0.000000,,2013-05-16 03:25:00,
2013-05-15 22:37:00,68.0,61.0,-100.00,South,185,1.0,5.0,78,0.00,,,0.00,0.000000,,2013-05-16 03:37:00,
2013-05-15 22:45:00,68.0,61.0,-100.00,South,185,1.0,5.0,78,0.00,,,0.00,0.000000,,2013-05-16 03:45:00,
2013-05-15 22:51:00,67.0,63.0,-100.00,SSW,209,2.0,3.0,87,0.00,,,0.00,0.000000,,2013-05-16 03:51:00,
2013-05-15 23:23:00,67.0,63.0,-100.00,SSW,209,2.0,3.0,87,0.00,,,0.00,0.000000,,2013-05-16 04:23:00,
2013-05-15 23:33:00,67.0,63.0,-100.00,SSW,209,2.0,3.0,87,0.00,,,0.00,0.000000,,2013-05-16 04:33:00,
2013-05-15 23:42:00,67.0,63.0,-100.00,SSW,209,2.0,3.0,87,0.00,,,0.00,0.000000,,2013-05-16 04:42:00,
2013-05-15 23:51:00,68.0,64.0,-100.00,SW,218,0.0,5.0,88,0.00,,,0.00,0.000000,,2013-05-16 04:51:00,